Rhinelander, WI

9:04 PM CDT on August 16, 2017 (GMT -0500)
Rhinelander-Oneida County

Weather History for KRHI - November, 2012

Change the Weather History Date:

Saturday, November 24, 2012

  Actual Average Record
Temperature  
Mean Temperature 21 °F 26 °F  
Max Temperature 24 °F 33 °F 54 °F (1988)
Min Temperature 18 °F 18 °F -11 °F (1950)
Degree Days  
Heating Degree Days 44 39  
Month to date heating degree days 731 795  
Since 1 July heating degree days 1852 1888  
Cooling Degree Days 0 0  
Month to date cooling degree days 0 0  
Year to date cooling degree days 373 261  
Moisture  
Dew Point 13 °F    
Average Humidity 70    
Maximum Humidity 84    
Minimum Humidity 55    
Precipitation  
Precipitation 0.09 in 0.06 in 1.01 in (2001)
Month to date precipitation 1.33 1.49  
Year to date precipitation 29.16 29.61  
Snow  
Snow 0.90 in - 5.90 in (2014)
Month to date snowfall 4.4  
Since 1 July snowfall 4.4  
Since 1 September snowfall 4.4  
Snow Depth 2.00 in    
Sea Level Pressure  
Sea Level Pressure 30.07 in    
Wind  
Wind Speed 6 mph (SW)    
Max Wind Speed 14 mph    
Max Gust Speed 20 mph    
Visibility 7 miles    
Events Snow    
T = Trace of Precipitation, MM = Missing Value Source: NWS Daily Summary

Daily Weather History Graph

Daily Weather History Graph

Search for Another Location

Airport or City:

Trip Planner

Search our weather history database for the weather conditions in past years. The results will help you decide how hot, cold, wet, or windy it might be!

Date:

Astronomy

Nov. 24, 2012 Rise Set
Actual Time 7:10 AM CST 4:19 PM CST
Civil Twilight 6:36 AM CST 4:52 PM CST
Nautical Twilight 6:00 AM CST 5:28 PM CST
Astronomical Twilight 5:24 AM CST 6:04 PM CST
Moon 2:11 PM CST (11/24) 3:18 AM CST (11/24)
Length of Visible Light 10h 15m
Length of Day
9h 09m
Waxing Gibbous, 87% of the Moon is Illuminated
Nov 24
Waxing Gibbous
Nov 28
Full
Dec 6
Last Quarter
Dec 13
New
Dec 19
First Quarter

Hourly Weather History & Observations

Time (CST) Temp. Windchill Dew Point Humidity Pressure Visibility Wind Dir Wind Speed Gust Speed Precip Events Conditions
12:53 AM 19.0 °F 13.9 °F 12.0 °F 74% 30.23 in 8.0 mi NW 3.5 mph - 0.00 in Snow Light Snow
1:53 AM 19.0 °F 9.0 °F 12.0 °F 74% 30.24 in 6.0 mi NW 8.1 mph - 0.00 in Snow Light Snow
2:53 AM 19.0 °F 9.0 °F 12.0 °F 74% 30.24 in 7.0 mi NNW 8.1 mph 16.1 mph 0.00 in Snow Light Snow
3:53 AM 19.0 °F 7.5 °F 10.9 °F 71% 30.23 in 10.0 mi NNW 10.4 mph - 0.00 in   Overcast
4:53 AM 19.0 °F 8.2 °F 10.9 °F 71% 30.24 in 10.0 mi NW 9.2 mph - N/A   Overcast
5:53 AM 19.0 °F 7.5 °F 10.9 °F 71% 30.24 in 10.0 mi NW 10.4 mph - N/A   Overcast
6:53 AM 18.0 °F 12.7 °F 10.9 °F 74% 30.25 in 10.0 mi Variable 3.5 mph - N/A   Overcast
7:53 AM 18.0 °F 7.7 °F 10.0 °F 71% 30.25 in 10.0 mi NW 8.1 mph - 0.00 in   Overcast
8:53 AM 19.0 °F 12.3 °F 10.9 °F 71% 30.24 in 10.0 mi NW 4.6 mph - N/A   Overcast
9:53 AM 19.0 °F 12.3 °F 10.9 °F 71% 30.23 in 10.0 mi Variable 4.6 mph - N/A   Overcast
10:53 AM 19.9 °F 13.4 °F 12.0 °F 71% 30.21 in 10.0 mi West 4.6 mph - N/A   Overcast
11:48 AM 21.2 °F 16.4 °F 12.2 °F 68% 30.09 in 10.0 mi West 3.5 mph - N/A   Partly Cloudy
11:53 AM 21.9 °F - 12.0 °F 66% 30.17 in 10.0 mi Calm Calm - N/A   Partly Cloudy
12:53 PM 21.9 °F - 12.0 °F 66% 30.14 in 10.0 mi Calm Calm - N/A   Clear
1:53 PM 23.0 °F 17.0 °F 10.9 °F 60% 30.12 in 10.0 mi South 4.6 mph - N/A   Clear
2:53 PM 24.1 °F 17.0 °F 10.0 °F 55% 30.09 in 10.0 mi SSW 5.8 mph - N/A   Clear
3:53 PM 23.0 °F 15.8 °F 10.9 °F 60% 30.06 in 10.0 mi South 5.8 mph - N/A   Scattered Clouds
4:53 PM 23.0 °F 18.4 °F 10.9 °F 60% 30.05 in 10.0 mi South 3.5 mph - N/A   Mostly Cloudy
5:53 PM 23.0 °F 18.4 °F 10.9 °F 60% 30.01 in 10.0 mi SSE 3.5 mph - N/A   Overcast
6:53 PM 23.0 °F 17.0 °F 10.9 °F 60% 29.99 in 10.0 mi South 4.6 mph - N/A   Overcast
7:53 PM 23.0 °F 15.8 °F 12.0 °F 63% 29.96 in 10.0 mi South 5.8 mph - N/A   Overcast
8:53 PM 21.9 °F 12.5 °F 12.9 °F 68% 29.94 in 4.0 mi South 8.1 mph - 0.00 in Snow Light Snow
9:01 PM 21.2 °F 11.7 °F 14.0 °F 74% 29.85 in 2.5 mi South 8.1 mph - 0.00 in Snow Light Snow
9:16 PM 21.2 °F 13.6 °F 15.8 °F 80% 29.85 in 1.5 mi South 5.8 mph - 0.00 in Snow Light Snow
9:40 PM 21.2 °F 16.4 °F 17.6 °F 86% 29.85 in 1.0 mi SSW 3.5 mph - 0.01 in Snow Light Snow
9:53 PM 21.0 °F 16.2 °F 18.0 °F 88% 29.94 in 1.0 mi SSW 3.5 mph - 0.02 in Snow Light Snow
10:03 PM 21.2 °F 14.9 °F 17.6 °F 86% 29.84 in 1.5 mi South 4.6 mph - 0.00 in Snow Light Snow
10:28 PM 21.2 °F 13.6 °F 17.6 °F 86% 29.84 in 1.0 mi SSW 5.8 mph - 0.02 in Snow Light Snow
10:53 PM 21.0 °F 12.4 °F 18.0 °F 88% 29.90 in 1.0 mi South 6.9 mph - 0.03 in Snow Light Snow
11:53 PM 21.0 °F 13.4 °F 19.0 °F 92% 29.87 in 0.8 mi South 5.8 mph - 0.04 in Snow Light Snow